Time,TemperatureF,DewpointF,PressureIn,WindDirection,WindDirectionDegrees,WindSpeedMPH,WindSpeedGustMPH,Humidity,HourlyPrecipIn,Conditions,Clouds,dailyrainin,SoftwareType,DateUTC
2013-03-22 00:00:00,26.0,20.7,30.03,WNW,302,4.0,5.0,80,0.00,,---,0.00,VWS V14.01,2013-03-22 04:00:00,
2013-03-22 00:01:00,26.0,21.0,30.03,WNW,298,7.0,8.0,81,0.00,,---,0.00,VWS V14.01,2013-03-22 04:01:00,
2013-03-22 00:06:00,25.9,20.9,30.03,NW,306,7.0,7.0,81,0.00,,---,0.00,VWS V14.01,2013-03-22 04:06:00,
2013-03-22 00:11:00,25.9,20.9,30.03,WNW,292,5.0,7.0,81,0.00,,---,0.00,VWS V14.01,2013-03-22 04:11:00,
2013-03-22 00:16:00,25.9,20.9,30.03,WNW,302,3.0,6.0,81,0.00,,---,0.00,VWS V14.01,2013-03-22 04:16:00,
2013-03-22 00:21:00,25.8,20.8,30.03,WNW,302,4.0,5.0,81,0.00,,---,0.00,VWS V14.01,2013-03-22 04:21:00,
2013-03-22 00:26:00,25.8,21.1,30.03,NW,320,5.0,6.0,82,0.00,,---,0.00,VWS V14.01,2013-03-22 04:26:00,
2013-03-22 00:31:00,25.8,21.1,30.03,WNW,292,5.0,5.0,82,0.00,,---,0.00,VWS V14.01,2013-03-22 04:31:00,
2013-03-22 00:36:00,25.8,21.1,30.03,WNW,284,4.0,6.0,82,0.00,,---,0.00,VWS V14.01,2013-03-22 04:36:00,
2013-03-22 00:41:00,25.8,21.1,30.03,WNW,283,6.0,6.0,82,0.00,,---,0.00,VWS V14.01,2013-03-22 04:41:00,
2013-03-22 00:46:00,25.7,21.0,30.03,WNW,283,4.0,5.0,82,0.00,,---,0.00,VWS V14.01,2013-03-22 04:46:00,
2013-03-22 00:51:00,25.7,21.0,30.03,WNW,283,5.0,6.0,82,0.00,,---,0.00,VWS V14.01,2013-03-22 04:51:00,
2013-03-22 00:57:00,25.7,21.0,30.03,WNW,283,5.0,6.0,82,0.00,,---,0.00,VWS V14.01,2013-03-22 04:57:00,
2013-03-22 01:02:00,25.7,21.3,30.03,WNW,282,4.0,6.0,83,0.00,,---,0.00,VWS V14.01,2013-03-22 05:02:00,
2013-03-22 01:07:00,25.6,21.2,30.03,WNW,282,4.0,5.0,83,0.00,,---,0.00,VWS V14.01,2013-03-22 05:07:00,
2013-03-22 01:12:00,25.6,21.2,30.03,WNW,282,4.0,5.0,83,0.00,,---,0.00,VWS V14.01,2013-03-22 05:12:00,
2013-03-22 01:17:00,25.6,21.2,30.03,WNW,282,4.0,5.0,83,0.00,,---,0.00,VWS V14.01,2013-03-22 05:17:00,
2013-03-22 01:22:00,25.6,21.2,30.03,WNW,282,4.0,5.0,83,0.00,,---,0.00,VWS V14.01,2013-03-22 05:22:00,
2013-03-22 01:27:00,25.6,21.2,30.03,WNW,282,4.0,5.0,83,0.00,,---,0.00,VWS V14.01,2013-03-22 05:27:00,
2013-03-22 01:32:00,25.6,21.5,30.03,WNW,282,3.0,4.0,84,0.00,,---,0.00,VWS V14.01,2013-03-22 05:32:00,
2013-03-22 01:37:00,25.6,21.5,30.03,WNW,282,4.0,5.0,84,0.00,,---,0.00,VWS V14.01,2013-03-22 05:37:00,
2013-03-22 01:42:00,25.5,21.4,30.03,WNW,282,4.0,5.0,84,0.00,,---,0.00,VWS V14.01,2013-03-22 05:42:00,
2013-03-22 01:47:00,25.5,21.4,30.02,West,281,4.0,5.0,84,0.00,,---,0.00,VWS V14.01,2013-03-22 05:47:00,
2013-03-22 01:52:00,25.5,21.4,30.02,West,268,6.0,6.0,84,0.00,,---,0.00,VWS V14.01,2013-03-22 05:52:00,
2013-03-22 01:57:00,25.5,21.4,30.02,West,268,5.0,5.0,84,0.00,,---,0.00,VWS V14.01,2013-03-22 05:57:00,
2013-03-22 02:02:00,25.5,21.4,30.02,West,268,4.0,6.0,84,0.00,,---,0.00,VWS V14.01,2013-03-22 06:02:00,
2013-03-22 02:07:00,25.5,21.4,30.02,West,268,4.0,6.0,84,0.00,,---,0.00,VWS V14.01,2013-03-22 06:07:00,
2013-03-22 02:12:00,25.5,21.4,30.02,West,268,4.0,4.0,84,0.00,,---,0.00,VWS V14.01,2013-03-22 06:12:00,
2013-03-22 02:17:00,25.5,21.4,30.02,West,268,4.0,5.0,84,0.00,,---,0.00,VWS V14.01,2013-03-22 06:17:00,
2013-03-22 02:22:00,25.6,21.5,30.02,West,267,5.0,6.0,84,0.00,,---,0.00,VWS V14.01,2013-03-22 06:22:00,
2013-03-22 02:27:00,25.6,21.5,30.02,West,263,4.0,6.0,84,0.00,,---,0.00,VWS V14.01,2013-03-22 06:27:00,
2013-03-22 02:32:00,25.6,21.5,30.02,West,263,4.0,6.0,84,0.00,,---,0.00,VWS V14.01,2013-03-22 06:32:00,
2013-03-22 02:37:00,25.6,21.5,30.02,West,263,5.0,6.0,84,0.00,,---,0.00,VWS V14.01,2013-03-22 06:37:00,
2013-03-22 02:42:00,25.6,21.5,30.02,West,263,4.0,5.0,84,0.00,,---,0.00,VWS V14.01,2013-03-22 06:42:00,
2013-03-22 02:47:00,25.6,21.5,30.02,West,263,5.0,6.0,84,0.00,,---,0.00,VWS V14.01,2013-03-22 06:47:00,
2013-03-22 02:52:00,25.6,21.5,30.02,West,263,5.0,6.0,84,0.00,,---,0.00,VWS V14.01,2013-03-22 06:52:00,
2013-03-22 02:57:00,25.6,21.5,30.02,West,263,4.0,6.0,84,0.00,,---,0.00,VWS V14.01,2013-03-22 06:57:00,
2013-03-22 03:02:00,25.6,21.5,30.02,West,261,6.0,6.0,84,0.00,,---,0.00,VWS V14.01,2013-03-22 07:02:00,
2013-03-22 03:07:00,25.6,21.5,30.02,West,261,4.0,6.0,84,0.00,,---,0.00,VWS V14.01,2013-03-22 07:07:00,
2013-03-22 03:12:00,25.6,21.5,30.02,West,261,6.0,6.0,84,0.00,,---,0.00,VWS V14.01,2013-03-22 07:12:00,
2013-03-22 03:17:00,25.6,21.5,30.02,West,261,3.0,6.0,84,0.00,,---,0.00,VWS V14.01,2013-03-22 07:17:00,
2013-03-22 03:22:00,25.7,21.8,30.02,West,261,4.0,5.0,85,0.00,,---,0.00,VWS V14.01,2013-03-22 07:22:00,
2013-03-22 03:27:00,25.7,21.8,30.02,West,261,4.0,5.0,85,0.00,,---,0.00,VWS V14.01,2013-03-22 07:27:00,
2013-03-22 03:32:00,25.7,21.5,30.02,West,261,3.0,5.0,84,0.00,,---,0.00,VWS V14.01,2013-03-22 07:32:00,
2013-03-22 03:37:00,25.7,21.5,30.02,West,261,4.0,5.0,84,0.00,,---,0.00,VWS V14.01,2013-03-22 07:37:00,
2013-03-22 03:42:00,25.7,21.8,30.02,West,261,6.0,6.0,85,0.00,,---,0.00,VWS V14.01,2013-03-22 07:42:00,
2013-03-22 03:47:00,25.7,21.8,30.02,West,261,4.0,6.0,85,0.00,,---,0.00,VWS V14.01,2013-03-22 07:47:00,
2013-03-22 03:52:00,25.7,21.5,30.01,WSW,258,5.0,6.0,84,0.00,,---,0.00,VWS V14.01,2013-03-22 07:52:00,
2013-03-22 03:57:00,25.7,21.5,30.02,WSW,258,6.0,6.0,84,0.00,,---,0.00,VWS V14.01,2013-03-22 07:57:00,
2013-03-22 04:02:00,25.7,21.5,30.02,WSW,258,4.0,6.0,84,0.00,,---,0.00,VWS V14.01,2013-03-22 08:02:00,
2013-03-22 04:07:00,25.7,21.5,30.02,WSW,258,4.0,6.0,84,0.00,,---,0.00,VWS V14.01,2013-03-22 08:07:00,
2013-03-22 04:12:00,25.7,21.5,30.01,WSW,258,4.0,5.0,84,0.00,,---,0.00,VWS V14.01,2013-03-22 08:12:00,
2013-03-22 04:18:00,25.7,21.5,30.01,WSW,258,3.0,5.0,84,0.00,,---,0.00,VWS V14.01,2013-03-22 08:18:00,
2013-03-22 04:23:00,25.8,21.6,30.01,WSW,258,3.0,5.0,84,0.00,,---,0.00,VWS V14.01,2013-03-22 08:23:00,
2013-03-22 04:27:00,25.8,21.6,30.01,WSW,258,3.0,4.0,84,0.00,,---,0.00,VWS V14.01,2013-03-22 08:27:00,
2013-03-22 04:32:00,25.7,21.5,30.01,WSW,258,3.0,5.0,84,0.00,,---,0.00,VWS V14.01,2013-03-22 08:32:00,
2013-03-22 04:37:00,25.7,21.5,30.01,WSW,258,4.0,5.0,84,0.00,,---,0.00,VWS V14.01,2013-03-22 08:37:00,
2013-03-22 04:42:00,25.7,21.3,30.01,WSW,258,6.0,6.0,83,0.00,,---,0.00,VWS V14.01,2013-03-22 08:42:00,
2013-03-22 04:47:00,25.8,21.6,30.01,WSW,258,5.0,6.0,84,0.00,,---,0.00,VWS V14.01,2013-03-22 08:47:00,
2013-03-22 04:52:00,25.8,21.6,30.01,WSW,258,3.0,5.0,84,0.00,,---,0.00,VWS V14.01,2013-03-22 08:52:00,
2013-03-22 04:57:00,25.8,21.6,30.01,WSW,258,3.0,5.0,84,0.00,,---,0.00,VWS V14.01,2013-03-22 08:57:00,
2013-03-22 05:02:00,25.8,21.6,30.01,WSW,258,3.0,4.0,84,0.00,,---,0.00,VWS V14.01,2013-03-22 09:02:00,
2013-03-22 05:07:00,25.8,21.6,30.01,WSW,258,4.0,4.0,84,0.00,,---,0.00,VWS V14.01,2013-03-22 09:07:00,
2013-03-22 05:12:00,25.8,21.6,30.01,WSW,258,2.0,4.0,84,0.00,,---,0.00,VWS V14.01,2013-03-22 09:12:00,
2013-03-22 05:17:00,25.8,21.6,30.02,WSW,258,4.0,5.0,84,0.00,,---,0.00,VWS V14.01,2013-03-22 09:17:00,
2013-03-22 05:22:00,25.7,21.5,30.01,WSW,258,4.0,4.0,84,0.00,,---,0.00,VWS V14.01,2013-03-22 09:22:00,
2013-03-22 05:27:00,25.7,21.5,30.01,WSW,258,3.0,5.0,84,0.00,,---,0.00,VWS V14.01,2013-03-22 09:27:00,
2013-03-22 05:32:00,25.7,21.5,30.01,WSW,258,4.0,5.0,84,0.00,,---,0.00,VWS V14.01,2013-03-22 09:32:00,
2013-03-22 05:37:00,25.7,21.5,30.01,WSW,258,4.0,5.0,84,0.00,,---,0.00,VWS V14.01,2013-03-22 09:37:00,
2013-03-22 05:42:00,25.7,21.5,30.02,WSW,258,6.0,6.0,84,0.00,,---,0.00,VWS V14.01,2013-03-22 09:42:00,
2013-03-22 05:47:00,25.8,21.6,30.02,WSW,258,4.0,5.0,84,0.00,,---,0.00,VWS V14.01,2013-03-22 09:47:00,
2013-03-22 05:52:00,25.8,21.6,30.01,WSW,258,4.0,5.0,84,0.00,,---,0.00,VWS V14.01,2013-03-22 09:52:00,
2013-03-22 05:57:00,25.8,21.6,30.01,WSW,258,4.0,5.0,84,0.00,,---,0.00,VWS V14.01,2013-03-22 09:57:00,
2013-03-22 06:02:00,25.8,21.6,30.02,WSW,258,5.0,6.0,84,0.00,,---,0.00,VWS V14.01,2013-03-22 10:02:00,
2013-03-22 06:07:00,25.9,21.7,30.02,WSW,258,5.0,6.0,84,0.00,,---,0.00,VWS V14.01,2013-03-22 10:07:00,
2013-03-22 06:12:00,25.9,21.7,30.02,WSW,258,6.0,7.0,84,0.00,,---,0.00,VWS V14.01,2013-03-22 10:12:00,
2013-03-22 06:18:00,26.0,21.8,30.02,WSW,257,5.0,6.0,84,0.00,,---,0.00,VWS V14.01,2013-03-22 10:18:00,
2013-03-22 06:23:00,26.1,21.9,30.02,WSW,254,5.0,7.0,84,0.00,,---,0.00,VWS V14.01,2013-03-22 10:23:00,
2013-03-22 06:28:00,26.2,21.8,30.02,WSW,252,6.0,7.0,83,0.00,,---,0.00,VWS V14.01,2013-03-22 10:28:00,
2013-03-22 06:33:00,26.2,21.8,30.02,WSW,252,4.0,6.0,83,0.00,,---,0.00,VWS V14.01,2013-03-22 10:33:00,
2013-03-22 06:38:00,26.3,21.9,30.03,WSW,252,5.0,6.0,83,0.00,,---,0.00,VWS V14.01,2013-03-22 10:38:00,
2013-03-22 06:43:00,26.4,21.7,30.02,WSW,252,4.0,6.0,82,0.00,,---,0.00,VWS V14.01,2013-03-22 10:43:00,
2013-03-22 06:48:00,26.5,21.8,30.03,WSW,256,5.0,7.0,82,0.00,,---,0.00,VWS V14.01,2013-03-22 10:48:00,
2013-03-22 06:53:00,26.7,21.7,30.03,WSW,256,4.0,6.0,81,0.00,,---,0.00,VWS V14.01,2013-03-22 10:53:00,
2013-03-22 06:58:00,26.8,21.8,30.03,West,259,7.0,8.0,81,0.00,,---,0.00,VWS V14.01,2013-03-22 10:58:00,
2013-03-22 07:03:00,27.0,21.7,30.02,West,265,4.0,6.0,80,0.00,,---,0.00,VWS V14.01,2013-03-22 11:03:00,
2013-03-22 07:08:00,27.0,21.7,30.03,West,265,4.0,6.0,80,0.00,,---,0.00,VWS V14.01,2013-03-22 11:08:00,
2013-03-22 07:13:00,27.1,21.8,30.02,West,265,4.0,6.0,80,0.00,,---,0.00,VWS V14.01,2013-03-22 11:13:00,
2013-03-22 07:18:00,27.1,21.8,30.02,West,265,4.0,5.0,80,0.00,,---,0.00,VWS V14.01,2013-03-22 11:18:00,
2013-03-22 07:23:00,27.2,21.6,30.03,West,265,2.0,5.0,79,0.00,,---,0.00,VWS V14.01,2013-03-22 11:23:00,
2013-03-22 07:28:00,27.2,21.9,30.03,West,265,4.0,5.0,80,0.00,,---,0.00,VWS V14.01,2013-03-22 11:28:00,
2013-03-22 07:33:00,27.1,21.5,30.02,West,265,3.0,5.0,79,0.00,,---,0.00,VWS V14.01,2013-03-22 11:33:00,
2013-03-22 07:37:00,27.0,21.1,30.02,West,264,4.0,6.0,78,0.00,,---,0.00,VWS V14.01,2013-03-22 11:37:00,
2013-03-22 07:42:00,26.9,21.0,30.02,West,264,4.0,4.0,78,0.00,,---,0.00,VWS V14.01,2013-03-22 11:42:00,
2013-03-22 07:48:00,26.5,20.3,30.03,West,264,2.0,4.0,77,0.00,,---,0.00,VWS V14.01,2013-03-22 11:48:00,
2013-03-22 07:53:00,26.0,19.8,30.02,West,264,4.0,5.0,77,0.00,,---,0.00,VWS V14.01,2013-03-22 11:53:00,
2013-03-22 07:58:00,25.7,19.8,30.02,West,264,3.0,4.0,78,0.00,,---,0.00,VWS V14.01,2013-03-22 11:58:00,
2013-03-22 08:03:00,25.4,19.8,30.03,West,264,3.0,4.0,79,0.00,,---,0.00,VWS V14.01,2013-03-22 12:03:00,
2013-03-22 08:08:00,25.2,19.6,30.03,West,264,3.0,4.0,79,0.00,,---,0.00,VWS V14.01,2013-03-22 12:08:00,
2013-03-22 08:13:00,25.1,19.8,30.03,West,264,3.0,4.0,80,0.00,,---,0.00,VWS V14.01,2013-03-22 12:13:00,
2013-03-22 08:18:00,25.1,19.8,30.03,West,264,4.0,5.0,80,0.00,,---,0.00,VWS V14.01,2013-03-22 12:18:00,
2013-03-22 08:23:00,25.1,19.5,30.03,West,264,4.0,5.0,79,0.00,,---,0.00,VWS V14.01,2013-03-22 12:23:00,
2013-03-22 08:28:00,25.1,19.5,30.03,South,185,3.0,4.0,79,0.00,,---,0.00,VWS V14.01,2013-03-22 12:28:00,
2013-03-22 08:33:00,25.1,19.5,30.03,South,185,3.0,4.0,79,0.00,,---,0.00,VWS V14.01,2013-03-22 12:33:00,
2013-03-22 08:37:00,25.2,19.6,30.03,South,185,3.0,4.0,79,0.00,,---,0.00,VWS V14.01,2013-03-22 12:37:00,
2013-03-22 08:42:00,25.3,19.7,30.03,SW,229,1.0,3.0,79,0.00,,---,0.00,VWS V14.01,2013-03-22 12:42:00,
2013-03-22 08:48:00,25.4,19.5,30.03,SW,229,0.0,2.0,78,0.00,,---,0.00,VWS V14.01,2013-03-22 12:48:00,
2013-03-22 08:53:00,25.4,19.5,30.03,South,187,1.0,2.0,78,0.00,,---,0.00,VWS V14.01,2013-03-22 12:53:00,
2013-03-22 08:58:00,25.5,19.9,30.03,SSW,209,4.0,4.0,79,0.00,,---,0.00,VWS V14.01,2013-03-22 12:58:00,
2013-03-22 09:03:00,25.7,20.1,30.03,SSW,209,4.0,4.0,79,0.00,,---,0.00,VWS V14.01,2013-03-22 13:03:00,
2013-03-22 09:08:00,25.9,20.3,30.03,SSW,209,4.0,4.0,79,0.00,,---,0.00,VWS V14.01,2013-03-22 13:08:00,
2013-03-22 09:13:00,26.1,20.2,30.03,SSW,212,5.0,5.0,78,0.00,,---,0.00,VWS V14.01,2013-03-22 13:13:00,
2013-03-22 09:18:00,26.4,20.5,30.03,SW,221,5.0,5.0,78,0.00,,---,0.00,VWS V14.01,2013-03-22 13:18:00,
2013-03-22 09:23:00,26.7,20.8,30.03,SW,223,4.0,6.0,78,0.00,,---,0.00,VWS V14.01,2013-03-22 13:23:00,
2013-03-22 09:28:00,26.9,21.0,30.03,WSW,251,3.0,4.0,78,0.00,,---,0.00,VWS V14.01,2013-03-22 13:28:00,
2013-03-22 09:33:00,27.2,21.0,30.02,WSW,251,1.0,4.0,77,0.00,,---,0.00,VWS V14.01,2013-03-22 13:33:00,
2013-03-22 09:38:00,27.6,21.6,30.03,WSW,251,2.0,2.0,78,0.00,,---,0.00,VWS V14.01,2013-03-22 13:38:00,
2013-03-22 09:43:00,28.0,21.7,30.03,WSW,251,2.0,2.0,77,0.00,,---,0.00,VWS V14.01,2013-03-22 13:43:00,
2013-03-22 09:48:00,28.4,21.8,30.03,WSW,251,1.0,2.0,76,0.00,,---,0.00,VWS V14.01,2013-03-22 13:48:00,
2013-03-22 09:53:00,28.8,22.2,30.03,WSW,251,4.0,5.0,76,0.00,,---,0.00,VWS V14.01,2013-03-22 13:53:00,
2013-03-22 09:58:00,29.2,22.3,30.03,WSW,251,4.0,5.0,75,0.00,,---,0.00,VWS V14.01,2013-03-22 13:58:00,
2013-03-22 10:03:00,29.4,22.1,30.02,WSW,251,3.0,5.0,74,0.00,,---,0.00,VWS V14.01,2013-03-22 14:03:00,
2013-03-22 10:08:00,29.7,22.4,30.02,WSW,251,5.0,5.0,74,0.00,,---,0.00,VWS V14.01,2013-03-22 14:08:00,
2013-03-22 10:13:00,29.9,22.3,30.02,WSW,251,5.0,6.0,73,0.00,,---,0.00,VWS V14.01,2013-03-22 14:13:00,
2013-03-22 10:18:00,30.1,22.5,30.02,West,274,4.0,7.0,73,0.00,,---,0.00,VWS V14.01,2013-03-22 14:18:00,
2013-03-22 10:23:00,30.3,22.7,30.02,WSW,258,7.0,9.0,73,0.00,,---,0.00,VWS V14.01,2013-03-22 14:23:00,
2013-03-22 10:28:00,30.5,22.9,30.03,West,270,6.0,9.0,73,0.00,,---,0.00,VWS V14.01,2013-03-22 14:28:00,
2013-03-22 10:33:00,30.7,23.1,30.02,West,262,10.0,12.0,73,0.00,,---,0.00,VWS V14.01,2013-03-22 14:33:00,
2013-03-22 10:38:00,30.8,23.2,30.02,West,268,6.0,12.0,73,0.00,,---,0.00,VWS V14.01,2013-03-22 14:38:00,
2013-03-22 10:43:00,31.0,23.4,30.03,West,276,8.0,11.0,73,0.00,,---,0.00,VWS V14.01,2013-03-22 14:43:00,
2013-03-22 10:48:00,31.1,22.8,30.03,WNW,290,5.0,8.0,71,0.00,,---,0.00,VWS V14.01,2013-03-22 14:48:00,
2013-03-22 10:53:00,31.3,23.3,30.02,WNW,294,6.0,7.0,72,0.00,,---,0.00,VWS V14.01,2013-03-22 14:53:00,
2013-03-22 10:58:00,31.5,23.5,30.02,West,272,6.0,8.0,72,0.00,,---,0.00,VWS V14.01,2013-03-22 14:58:00,
2013-03-22 11:03:00,31.7,23.4,30.02,WNW,289,8.0,12.0,71,0.00,,---,0.00,VWS V14.01,2013-03-22 15:03:00,
2013-03-22 11:08:00,31.7,23.4,30.02,West,271,7.0,11.0,71,0.00,,---,0.00,VWS V14.01,2013-03-22 15:08:00,
2013-03-22 11:13:00,31.8,23.1,30.02,WNW,298,7.0,11.0,70,0.00,,---,0.00,VWS V14.01,2013-03-22 15:13:00,
2013-03-22 11:18:00,31.9,23.6,30.02,West,277,13.0,13.0,71,0.00,,---,0.00,VWS V14.01,2013-03-22 15:18:00,
2013-03-22 11:23:00,31.9,23.6,30.02,WNW,298,5.0,11.0,71,0.01,,---,0.01,VWS V14.01,2013-03-22 15:23:00,
2013-03-22 11:28:00,32.1,23.4,30.02,WNW,299,7.0,10.0,70,0.01,,---,0.01,VWS V14.01,2013-03-22 15:28:00,
2013-03-22 11:33:00,32.4,23.7,30.02,NW,316,6.0,10.0,70,0.01,,---,0.01,VWS V14.01,2013-03-22 15:33:00,
2013-03-22 11:38:00,32.6,23.9,30.02,WNW,303,6.0,10.0,70,0.01,,---,0.01,VWS V14.01,2013-03-22 15:38:00,
2013-03-22 11:43:00,32.7,23.7,30.02,NW,309,4.0,8.0,69,0.01,,---,0.01,VWS V14.01,2013-03-22 15:43:00,
2013-03-22 11:48:00,32.8,23.8,30.03,WNW,290,8.0,8.0,69,0.01,,---,0.01,VWS V14.01,2013-03-22 15:48:00,
2013-03-22 11:53:00,32.6,23.9,30.03,WNW,290,6.0,9.0,70,0.01,,---,0.01,VWS V14.01,2013-03-22 15:53:00,
2013-03-22 11:58:00,32.9,24.5,30.03,WSW,244,7.0,10.0,71,0.01,,---,0.01,VWS V14.01,2013-03-22 15:58:00,
2013-03-22 12:03:00,33.0,24.6,30.03,West,264,8.0,12.0,71,0.01,,---,0.01,VWS V14.01,2013-03-22 16:03:00,
2013-03-22 12:08:00,32.9,24.2,30.03,West,263,7.0,12.0,70,0.01,,---,0.01,VWS V14.01,2013-03-22 16:08:00,
2013-03-22 12:13:00,33.2,24.5,30.03,WSW,240,4.0,7.0,70,0.01,,---,0.01,VWS V14.01,2013-03-22 16:13:00,
2013-03-22 12:18:00,33.5,24.8,30.03,WNW,295,5.0,9.0,70,0.01,,---,0.01,VWS V14.01,2013-03-22 16:18:00,
2013-03-22 12:23:00,33.5,24.8,30.03,West,275,4.0,7.0,70,0.01,,---,0.02,VWS V14.01,2013-03-22 16:23:00,
2013-03-22 12:28:00,33.5,25.1,30.03,West,265,12.0,14.0,71,0.01,,---,0.02,VWS V14.01,2013-03-22 16:28:00,
2013-03-22 12:33:00,33.3,24.6,30.03,West,261,6.0,12.0,70,0.01,,---,0.02,VWS V14.01,2013-03-22 16:33:00,
2013-03-22 12:38:00,33.5,24.8,30.03,West,270,7.0,8.0,70,0.01,,---,0.02,VWS V14.01,2013-03-22 16:38:00,
2013-03-22 12:43:00,33.5,24.8,30.03,West,261,6.0,11.0,70,0.01,,---,0.02,VWS V14.01,2013-03-22 16:43:00,
2013-03-22 12:48:00,33.4,24.7,30.03,WSW,254,10.0,15.0,70,0.01,,---,0.02,VWS V14.01,2013-03-22 16:48:00,
2013-03-22 12:53:00,33.6,25.9,30.03,WNW,284,8.0,12.0,73,0.01,,---,0.02,VWS V14.01,2013-03-22 16:53:00,
2013-03-22 12:58:00,33.8,25.4,30.03,NNW,329,8.0,11.0,71,0.01,,---,0.02,VWS V14.01,2013-03-22 16:58:00,
2013-03-22 13:03:00,33.8,25.4,30.03,West,261,11.0,12.0,71,0.01,,---,0.02,VWS V14.01,2013-03-22 17:03:00,
2013-03-22 13:08:00,33.8,25.4,30.03,WSW,255,11.0,12.0,71,0.01,,---,0.02,VWS V14.01,2013-03-22 17:08:00,
2013-03-22 13:13:00,33.9,25.5,30.03,WNW,296,10.0,14.0,71,0.01,,---,0.02,VWS V14.01,2013-03-22 17:13:00,
2013-03-22 13:18:00,33.9,25.8,30.03,WNW,284,9.0,11.0,72,0.01,,---,0.02,VWS V14.01,2013-03-22 17:18:00,
2013-03-22 13:23:00,33.7,25.6,30.03,WNW,291,9.0,12.0,72,0.01,,---,0.02,VWS V14.01,2013-03-22 17:23:00,
2013-03-22 13:28:00,33.5,25.8,30.03,West,274,9.0,13.0,73,0.00,,---,0.02,VWS V14.01,2013-03-22 17:28:00,
2013-03-22 13:33:00,33.5,25.5,30.03,WNW,285,10.0,11.0,72,0.00,,---,0.02,VWS V14.01,2013-03-22 17:33:00,
2013-03-22 13:38:00,33.4,25.4,30.03,WNW,292,9.0,14.0,72,0.01,,---,0.03,VWS V14.01,2013-03-22 17:38:00,
2013-03-22 13:43:00,33.3,25.9,30.03,West,269,13.0,13.0,74,0.01,,---,0.03,VWS V14.01,2013-03-22 17:43:00,
2013-03-22 13:48:00,33.3,25.9,30.04,WNW,282,9.0,11.0,74,0.01,,---,0.03,VWS V14.01,2013-03-22 17:48:00,
2013-03-22 13:53:00,33.2,25.5,30.03,West,277,11.0,12.0,73,0.01,,---,0.03,VWS V14.01,2013-03-22 17:53:00,
2013-03-22 13:58:00,33.3,25.9,30.04,WNW,296,9.0,9.0,74,0.01,,---,0.03,VWS V14.01,2013-03-22 17:58:00,
2013-03-22 14:03:00,33.3,25.9,30.04,West,269,9.0,9.0,74,0.01,,---,0.03,VWS V14.01,2013-03-22 18:03:00,
2013-03-22 14:08:00,33.4,26.0,30.04,West,267,5.0,6.0,74,0.01,,---,0.03,VWS V14.01,2013-03-22 18:08:00,
2013-03-22 14:13:00,33.6,26.2,30.04,West,275,6.0,9.0,74,0.01,,---,0.03,VWS V14.01,2013-03-22 18:13:00,
2013-03-22 14:18:00,33.7,26.6,30.03,WNW,284,10.0,11.0,75,0.01,,---,0.03,VWS V14.01,2013-03-22 18:18:00,
2013-03-22 14:23:00,33.5,26.4,30.03,West,267,7.0,9.0,75,0.01,,---,0.03,VWS V14.01,2013-03-22 18:23:00,
2013-03-22 14:28:00,33.4,27.0,30.03,West,260,11.0,14.0,77,0.01,,---,0.03,VWS V14.01,2013-03-22 18:28:00,
2013-03-22 14:33:00,33.3,27.5,30.03,WNW,282,8.0,12.0,79,0.01,,---,0.03,VWS V14.01,2013-03-22 18:33:00,
2013-03-22 14:38:00,33.3,27.2,30.03,West,269,12.0,14.0,78,0.01,,---,0.03,VWS V14.01,2013-03-22 18:38:00,
2013-03-22 14:43:00,33.1,27.0,30.03,West,260,13.0,13.0,78,0.00,,---,0.03,VWS V14.01,2013-03-22 18:43:00,
2013-03-22 14:48:00,33.2,27.4,30.03,West,271,9.0,12.0,79,0.00,,---,0.03,VWS V14.01,2013-03-22 18:48:00,
2013-03-22 14:53:00,33.2,27.1,30.03,WSW,251,9.0,11.0,78,0.00,,---,0.03,VWS V14.01,2013-03-22 18:53:00,
2013-03-22 14:58:00,33.3,26.9,30.03,WSW,249,9.0,12.0,77,0.00,,---,0.03,VWS V14.01,2013-03-22 18:58:00,
2013-03-22 15:03:00,33.3,26.9,30.03,WSW,252,11.0,12.0,77,0.00,,---,0.03,VWS V14.01,2013-03-22 19:03:00,
2013-03-22 15:08:00,33.4,26.7,30.03,West,281,9.0,13.0,76,0.00,,---,0.03,VWS V14.01,2013-03-22 19:08:00,
2013-03-22 15:13:00,33.6,26.9,30.02,WSW,249,10.0,13.0,76,0.01,,---,0.04,VWS V14.01,2013-03-22 19:13:00,
2013-03-22 15:18:00,33.7,26.3,30.02,WSW,258,10.0,10.0,74,0.01,,---,0.04,VWS V14.01,2013-03-22 19:18:00,
2013-03-22 15:23:00,33.8,26.4,30.02,West,266,11.0,15.0,74,0.01,,---,0.04,VWS V14.01,2013-03-22 19:23:00,
2013-03-22 15:28:00,33.9,26.8,30.02,West,277,11.0,14.0,75,0.01,,---,0.04,VWS V14.01,2013-03-22 19:28:00,
2013-03-22 15:33:00,34.2,26.1,30.02,West,278,8.0,16.0,72,0.01,,---,0.04,VWS V14.01,2013-03-22 19:33:00,
2013-03-22 15:38:00,34.3,26.2,30.02,West,272,9.0,14.0,72,0.01,,---,0.04,VWS V14.01,2013-03-22 19:38:00,
2013-03-22 15:43:00,34.4,26.7,30.02,West,271,9.0,13.0,73,0.01,,---,0.04,VWS V14.01,2013-03-22 19:43:00,
2013-03-22 15:48:00,34.5,26.4,30.02,WSW,253,10.0,14.0,72,0.01,,---,0.04,VWS V14.01,2013-03-22 19:48:00,
2013-03-22 15:53:00,34.5,25.7,30.02,WNW,284,12.0,14.0,70,0.01,,---,0.04,VWS V14.01,2013-03-22 19:53:00,
2013-03-22 15:58:00,34.2,26.1,30.02,West,272,7.0,14.0,72,0.01,,---,0.04,VWS V14.01,2013-03-22 19:58:00,
2013-03-22 16:03:00,34.4,26.0,30.02,West,268,10.0,14.0,71,0.01,,---,0.04,VWS V14.01,2013-03-22 20:03:00,
2013-03-22 16:08:00,34.4,26.0,30.02,WSW,256,10.0,10.0,71,0.01,,---,0.04,VWS V14.01,2013-03-22 20:08:00,
2013-03-22 16:13:00,34.7,27.0,30.02,West,277,11.0,14.0,73,0.01,,---,0.04,VWS V14.01,2013-03-22 20:13:00,
2013-03-22 16:18:00,34.8,26.4,30.02,West,267,8.0,13.0,71,0.00,,---,0.04,VWS V14.01,2013-03-22 20:18:00,
2013-03-22 16:23:00,34.8,26.7,30.01,West,281,6.0,7.0,72,0.00,,---,0.04,VWS V14.01,2013-03-22 20:23:00,
2013-03-22 16:28:00,34.9,27.1,30.02,West,275,9.0,11.0,73,0.00,,---,0.04,VWS V14.01,2013-03-22 20:28:00,
2013-03-22 16:33:00,35.0,26.6,30.02,WNW,293,12.0,13.0,71,0.00,,---,0.04,VWS V14.01,2013-03-22 20:33:00,
2013-03-22 16:38:00,34.7,26.3,30.02,WNW,290,10.0,11.0,71,0.00,,---,0.04,VWS V14.01,2013-03-22 20:38:00,
2013-03-22 16:43:00,34.5,26.4,30.02,WSW,257,10.0,14.0,72,0.00,,---,0.04,VWS V14.01,2013-03-22 20:43:00,
2013-03-22 16:48:00,34.7,27.0,30.02,West,261,12.0,12.0,73,0.01,,---,0.05,VWS V14.01,2013-03-22 20:48:00,
2013-03-22 16:53:00,34.7,26.3,30.02,West,264,11.0,17.0,71,0.01,,---,0.05,VWS V14.01,2013-03-22 20:53:00,
2013-03-22 16:58:00,34.8,27.4,30.02,West,280,11.0,14.0,74,0.01,,---,0.05,VWS V14.01,2013-03-22 20:58:00,
2013-03-22 17:03:00,34.7,26.3,30.02,WNW,286,12.0,12.0,71,0.01,,---,0.05,VWS V14.01,2013-03-22 21:03:00,
2013-03-22 17:08:00,34.2,26.1,30.02,West,272,11.0,15.0,72,0.01,,---,0.05,VWS V14.01,2013-03-22 21:08:00,
2013-03-22 17:13:00,33.9,25.8,30.02,West,269,10.0,14.0,72,0.01,,---,0.05,VWS V14.01,2013-03-22 21:13:00,
2013-03-22 17:18:00,33.9,25.8,30.02,West,263,9.0,15.0,72,0.01,,---,0.05,VWS V14.01,2013-03-22 21:18:00,
2013-03-22 17:23:00,33.9,26.2,30.02,West,264,10.0,16.0,73,0.01,,---,0.05,VWS V14.01,2013-03-22 21:23:00,
2013-03-22 17:28:00,33.9,26.2,30.02,WNW,286,8.0,8.0,73,0.01,,---,0.05,VWS V14.01,2013-03-22 21:28:00,
2013-03-22 17:33:00,33.8,26.1,30.02,WNW,298,11.0,11.0,73,0.01,,---,0.05,VWS V14.01,2013-03-22 21:33:00,
2013-03-22 17:38:00,33.8,25.7,30.02,WNW,292,12.0,13.0,72,0.01,,---,0.05,VWS V14.01,2013-03-22 21:38:00,
2013-03-22 17:43:00,33.8,26.1,30.02,WNW,298,10.0,13.0,73,0.01,,---,0.05,VWS V14.01,2013-03-22 21:43:00,
2013-03-22 17:48:00,33.7,26.0,30.02,WNW,297,7.0,14.0,73,0.01,,---,0.05,VWS V14.01,2013-03-22 21:48:00,
2013-03-22 17:54:00,33.5,25.5,30.02,West,273,9.0,14.0,72,0.00,,---,0.05,VWS V14.01,2013-03-22 21:54:00,
2013-03-22 17:59:00,33.5,25.8,30.02,NW,306,11.0,12.0,73,0.00,,---,0.05,VWS V14.01,2013-03-22 21:59:00,
2013-03-22 18:04:00,33.5,26.1,30.02,WNW,294,9.0,10.0,74,0.00,,---,0.05,VWS V14.01,2013-03-22 22:04:00,
2013-03-22 18:09:00,33.4,26.0,30.02,West,277,9.0,11.0,74,0.00,,---,0.05,VWS V14.01,2013-03-22 22:09:00,
2013-03-22 18:14:00,33.5,26.1,30.02,WNW,287,9.0,9.0,74,0.00,,---,0.05,VWS V14.01,2013-03-22 22:14:00,
2013-03-22 18:19:00,33.3,25.3,30.03,WNW,285,7.0,7.0,72,0.00,,---,0.05,VWS V14.01,2013-03-22 22:19:00,
2013-03-22 18:24:00,33.1,24.7,30.03,West,271,8.0,10.0,71,0.00,,---,0.05,VWS V14.01,2013-03-22 22:24:00,
2013-03-22 18:29:00,32.9,24.9,30.03,West,278,8.0,8.0,72,0.00,,---,0.05,VWS V14.01,2013-03-22 22:29:00,
2013-03-22 18:33:00,32.8,24.8,30.02,WNW,287,11.0,11.0,72,0.00,,---,0.05,VWS V14.01,2013-03-22 22:33:00,
2013-03-22 18:38:00,32.6,24.9,30.03,WNW,298,11.0,11.0,73,0.00,,---,0.05,VWS V14.01,2013-03-22 22:38:00,
2013-03-22 18:43:00,32.5,24.5,30.03,WNW,288,11.0,12.0,72,0.00,,---,0.05,VWS V14.01,2013-03-22 22:43:00,
2013-03-22 18:48:00,32.4,24.7,30.03,West,277,7.0,7.0,73,0.00,,---,0.05,VWS V14.01,2013-03-22 22:48:00,
2013-03-22 18:53:00,32.4,25.0,30.03,West,271,9.0,10.0,74,0.00,,---,0.05,VWS V14.01,2013-03-22 22:53:00,
2013-03-22 18:58:00,32.4,24.7,30.04,West,264,10.0,13.0,73,0.00,,---,0.05,VWS V14.01,2013-03-22 22:58:00,
2013-03-22 19:03:00,32.3,25.0,30.04,West,278,10.0,10.0,74,0.00,,---,0.05,VWS V14.01,2013-03-22 23:03:00,
2013-03-22 19:08:00,32.2,24.5,30.04,West,271,8.0,11.0,73,0.00,,---,0.05,VWS V14.01,2013-03-22 23:08:00,
2013-03-22 19:13:00,32.1,24.8,30.04,West,260,8.0,12.0,74,0.00,,---,0.05,VWS V14.01,2013-03-22 23:13:00,
2013-03-22 19:18:00,32.0,24.7,30.04,West,281,9.0,12.0,74,0.00,,---,0.05,VWS V14.01,2013-03-22 23:18:00,
2013-03-22 19:23:00,31.8,24.8,30.04,West,277,7.0,12.0,75,0.00,,---,0.05,VWS V14.01,2013-03-22 23:23:00,
2013-03-22 19:28:00,31.7,24.0,30.04,WNW,290,8.0,14.0,73,0.00,,---,0.05,VWS V14.01,2013-03-22 23:28:00,
2013-03-22 19:33:00,31.6,24.6,30.04,West,279,6.0,12.0,75,0.00,,---,0.05,VWS V14.01,2013-03-22 23:33:00,
2013-03-22 19:38:00,31.4,24.4,30.05,West,273,7.0,10.0,75,0.00,,---,0.05,VWS V14.01,2013-03-22 23:38:00,
2013-03-22 19:43:00,31.3,24.0,30.05,West,274,5.0,10.0,74,0.00,,---,0.05,VWS V14.01,2013-03-22 23:43:00,
2013-03-22 19:48:00,31.2,23.9,30.05,WNW,288,10.0,10.0,74,0.00,,---,0.05,VWS V14.01,2013-03-22 23:48:00,
2013-03-22 19:53:00,31.0,23.7,30.05,West,276,6.0,11.0,74,0.00,,---,0.05,VWS V14.01,2013-03-22 23:53:00,
2013-03-22 19:58:00,30.8,23.5,30.05,West,269,8.0,10.0,74,0.00,,---,0.05,VWS V14.01,2013-03-22 23:58:00,
2013-03-22 20:03:00,30.6,23.6,30.06,West,279,5.0,10.0,75,0.00,,---,0.05,VWS V14.01,2013-03-23 00:03:00,
2013-03-22 20:08:00,30.5,23.9,30.06,West,277,6.0,11.0,76,0.00,,---,0.05,VWS V14.01,2013-03-23 00:08:00,
2013-03-22 20:13:00,30.3,23.7,30.06,WNW,289,6.0,8.0,76,0.00,,---,0.05,VWS V14.01,2013-03-23 00:13:00,
2013-03-22 20:18:00,30.1,23.5,30.06,WNW,294,7.0,9.0,76,0.00,,---,0.05,VWS V14.01,2013-03-23 00:18:00,
2013-03-22 20:23:00,29.9,23.6,30.06,WNW,292,7.0,9.0,77,0.00,,---,0.05,VWS V14.01,2013-03-23 00:23:00,
2013-03-22 20:28:00,29.9,23.9,30.06,WNW,284,5.0,7.0,78,0.00,,---,0.05,VWS V14.01,2013-03-23 00:28:00,
2013-03-22 20:33:00,29.7,23.4,30.06,West,277,8.0,10.0,77,0.00,,---,0.05,VWS V14.01,2013-03-23 00:33:00,
2013-03-22 20:38:00,29.6,23.9,30.06,West,275,7.0,8.0,79,0.00,,---,0.05,VWS V14.01,2013-03-23 00:38:00,
2013-03-22 20:43:00,29.5,23.8,30.06,WNW,284,7.0,10.0,79,0.00,,---,0.05,VWS V14.01,2013-03-23 00:43:00,
2013-03-22 20:48:00,29.4,24.0,30.07,WNW,284,4.0,8.0,80,0.00,,---,0.05,VWS V14.01,2013-03-23 00:48:00,
2013-03-22 20:53:00,29.3,24.2,30.07,WNW,290,5.0,6.0,81,0.00,,---,0.05,VWS V14.01,2013-03-23 00:53:00,
2013-03-22 20:58:00,29.2,24.1,30.07,West,276,6.0,7.0,81,0.00,,---,0.05,VWS V14.01,2013-03-23 00:58:00,
2013-03-22 21:03:00,29.0,23.9,30.07,West,281,5.0,7.0,81,0.00,,---,0.05,VWS V14.01,2013-03-23 01:03:00,
2013-03-22 21:08:00,29.0,23.9,30.07,WNW,282,5.0,7.0,81,0.00,,---,0.05,VWS V14.01,2013-03-23 01:08:00,
2013-03-22 21:13:00,28.9,23.8,30.07,WNW,282,4.0,6.0,81,0.00,,---,0.05,VWS V14.01,2013-03-23 01:13:00,
2013-03-22 21:18:00,28.8,24.0,30.07,West,271,6.0,7.0,82,0.00,,---,0.05,VWS V14.01,2013-03-23 01:18:00,
2013-03-22 21:23:00,28.7,23.6,30.07,West,271,6.0,7.0,81,0.00,,---,0.05,VWS V14.01,2013-03-23 01:23:00,
2013-03-22 21:28:00,28.6,23.8,30.07,West,271,4.0,6.0,82,0.00,,---,0.05,VWS V14.01,2013-03-23 01:28:00,
2013-03-22 21:33:00,28.5,23.7,30.07,West,271,5.0,6.0,82,0.00,,---,0.05,VWS V14.01,2013-03-23 01:33:00,
2013-03-22 21:38:00,28.4,23.6,30.07,West,271,4.0,6.0,82,0.00,,---,0.05,VWS V14.01,2013-03-23 01:38:00,
2013-03-22 21:43:00,28.3,23.8,30.07,West,271,2.0,5.0,83,0.00,,---,0.05,VWS V14.01,2013-03-23 01:43:00,
2013-03-22 21:48:00,28.2,23.7,30.07,West,271,3.0,4.0,83,0.00,,---,0.05,VWS V14.01,2013-03-23 01:48:00,
2013-03-22 21:53:00,28.1,23.6,30.07,West,271,3.0,5.0,83,0.00,,---,0.05,VWS V14.01,2013-03-23 01:53:00,
2013-03-22 21:58:00,28.0,23.5,30.07,West,271,3.0,4.0,83,0.00,,---,0.05,VWS V14.01,2013-03-23 01:58:00,
2013-03-22 22:03:00,28.0,23.5,30.07,West,271,2.0,4.0,83,0.00,,---,0.05,VWS V14.01,2013-03-23 02:03:00,
2013-03-22 22:08:00,27.9,23.7,30.07,West,271,1.0,3.0,84,0.00,,---,0.05,VWS V14.01,2013-03-23 02:08:00,
2013-03-22 22:13:00,27.8,23.6,30.07,West,271,3.0,3.0,84,0.00,,---,0.05,VWS V14.01,2013-03-23 02:13:00,
2013-03-22 22:18:00,27.6,23.4,30.07,West,271,2.0,4.0,84,0.00,,---,0.05,VWS V14.01,2013-03-23 02:18:00,
2013-03-22 22:23:00,27.6,23.4,30.06,West,271,2.0,3.0,84,0.00,,---,0.05,VWS V14.01,2013-03-23 02:23:00,
2013-03-22 22:28:00,27.5,23.3,30.06,West,271,2.0,3.0,84,0.00,,---,0.05,VWS V14.01,2013-03-23 02:28:00,
2013-03-22 22:33:00,27.4,23.2,30.06,West,271,2.0,2.0,84,0.00,,---,0.05,VWS V14.01,2013-03-23 02:33:00,
2013-03-22 22:38:00,27.2,23.3,30.06,West,271,1.0,2.0,85,0.00,,---,0.05,VWS V14.01,2013-03-23 02:38:00,
2013-03-22 22:43:00,27.1,23.2,30.06,West,271,1.0,2.0,85,0.00,,---,0.05,VWS V14.01,2013-03-23 02:43:00,
2013-03-22 22:48:00,27.0,23.1,30.06,West,271,2.0,2.0,85,0.00,,---,0.05,VWS V14.01,2013-03-23 02:48:00,
2013-03-22 22:53:00,26.9,23.3,30.06,West,271,1.0,2.0,86,0.00,,---,0.05,VWS V14.01,2013-03-23 02:53:00,
2013-03-22 22:58:00,26.8,23.2,30.06,West,271,0.0,1.0,86,0.00,,---,0.05,VWS V14.01,2013-03-23 02:58:00,
2013-03-22 23:03:00,26.7,23.1,30.06,West,271,0.0,0.0,86,0.00,,---,0.05,VWS V14.01,2013-03-23 03:03:00,
2013-03-22 23:08:00,26.6,23.0,30.07,West,271,0.0,0.0,86,0.00,,---,0.05,VWS V14.01,2013-03-23 03:08:00,
2013-03-22 23:13:00,26.5,22.9,30.07,West,271,0.0,0.0,86,0.00,,---,0.05,VWS V14.01,2013-03-23 03:13:00,
2013-03-22 23:18:00,26.3,22.7,30.07,West,271,2.0,3.0,86,0.00,,---,0.05,VWS V14.01,2013-03-23 03:18:00,
2013-03-22 23:23:00,26.2,22.6,30.06,West,271,2.0,3.0,86,0.00,,---,0.05,VWS V14.01,2013-03-23 03:23:00,
2013-03-22 23:28:00,26.0,22.4,30.07,West,271,2.0,3.0,86,0.00,,---,0.05,VWS V14.01,2013-03-23 03:28:00,
2013-03-22 23:33:00,26.0,22.4,30.07,West,271,3.0,3.0,86,0.00,,---,0.05,VWS V14.01,2013-03-23 03:33:00,
2013-03-22 23:38:00,25.9,22.3,30.07,West,271,3.0,4.0,86,0.00,,---,0.05,VWS V14.01,2013-03-23 03:38:00,
2013-03-22 23:43:00,25.8,22.5,30.07,West,271,3.0,3.0,87,0.00,,---,0.05,VWS V14.01,2013-03-23 03:43:00,
2013-03-22 23:48:00,25.7,22.4,30.08,West,271,3.0,4.0,87,0.00,,---,0.05,VWS V14.01,2013-03-23 03:48:00,
2013-03-22 23:53:00,25.6,22.3,30.08,West,271,3.0,4.0,87,0.00,,---,0.05,VWS V14.01,2013-03-23 03:53:00,
2013-03-22 23:58:00,25.5,22.2,30.08,West,271,3.0,4.0,87,0.00,,---,0.05,VWS V14.01,2013-03-23 03:58:00,